Tracking 18628 objects as of 24-April-2017
HD Live streaming from Space Station
objects crossing your sky now

NAVSTAR 28 (USA 85)

Track NAVSTAR 28 (USA 85) now!
NAVSTAR 28 (USA 85) is classified as:


NORAD ID: 22231
Int'l Code: 1992-079A
Perigee: 20,011.9 km
Apogee: 20,466.6 km
Inclination: 55.3 °
Period: 720.0 minutes
Semi major axis: 26610 km
RCS: 3.981 m2 (large)
Launch date: November 22, 1992
Source: United States (US)
Launch site: AIR FORCE EASTERN TEST RANGE (AFETR)
PRN:
Your satellite tracking list
Your tracking list is empty





NASA's NSSDC Master Catalog

Two Line Element Set (TLE):
1 22231U 92079A   17112.78269649 -.00000017 +00000-0 +00000-0 0  9999
2 22231 055.3070 229.1582 0085433 310.0096 107.3526 02.00558179178886
Source of the keplerian elements: AFSPC